Time,TemperatureF,DewpointF,PressureIn,WindDirection,WindDirectionDegrees,WindSpeedMPH,WindSpeedGustMPH,Humidity,HourlyPrecipIn,Conditions,Clouds,dailyrainin,SoftwareType,DateUTC
2017-05-25 00:14:00,56.6,53.0,29.99,NW,314,0.0,0.0,87,0.00,,,0.00,weatherlink.com 1.10,2017-05-24 21:14:00,
2017-05-25 00:29:00,56.6,53.0,29.99,NW,313,0.0,0.0,87,0.00,,,0.00,weatherlink.com 1.10,2017-05-24 21:29:00,
2017-05-25 00:44:00,56.4,52.0,29.98,NW,313,0.0,0.0,86,0.00,,,0.00,weatherlink.com 1.10,2017-05-24 21:44:00,
2017-05-25 00:59:00,55.8,52.0,29.98,NW,314,0.0,0.0,87,0.00,,,0.00,weatherlink.com 1.10,2017-05-24 21:59:00,
2017-05-25 01:14:00,57.3,49.0,29.97,NW,313,0.0,0.0,75,0.00,,,0.00,weatherlink.com 1.10,2017-05-24 22:14:00,
2017-05-25 01:29:00,57.9,48.0,29.97,NW,313,0.0,0.0,69,0.00,,,0.00,weatherlink.com 1.10,2017-05-24 22:29:00,
2017-05-25 01:44:00,58.3,43.0,29.97,NW,313,0.0,0.0,58,0.00,,,0.00,weatherlink.com 1.10,2017-05-24 22:44:00,
2017-05-25 02:14:00,58.8,46.0,29.96,NNW,328,0.0,0.0,62,0.00,,,0.00,weatherlink.com 1.10,2017-05-24 23:14:00,
2017-05-25 02:29:00,58.8,44.0,29.96,NNW,327,0.0,0.0,59,0.00,,,0.00,weatherlink.com 1.10,2017-05-24 23:29:00,
2017-05-25 02:45:00,58.6,45.0,29.96,NNW,328,0.0,0.0,60,0.00,,,0.00,weatherlink.com 1.10,2017-05-24 23:45:00,
2017-05-25 02:59:00,58.2,45.0,29.96,NNW,327,0.0,0.0,61,0.00,,,0.00,weatherlink.com 1.10,2017-05-24 23:59:00,
2017-05-25 03:15:00,57.9,45.0,29.96,NNW,328,0.0,0.0,62,0.00,,,0.00,weatherlink.com 1.10,2017-05-25 00:15:00,
2017-05-25 03:29:00,57.4,46.0,29.95,NNW,328,0.0,0.0,65,0.00,,,0.00,weatherlink.com 1.10,2017-05-25 00:29:00,
2017-05-25 03:45:00,57.2,42.0,29.95,NNW,327,0.0,0.0,58,0.00,,,0.00,weatherlink.com 1.10,2017-05-25 00:45:00,
2017-05-25 04:00:00,57.1,42.0,29.95,NNW,327,0.0,0.0,58,0.00,,,0.00,weatherlink.com 1.10,2017-05-25 01:00:00,
2017-05-25 04:15:00,56.8,45.0,29.95,NNW,328,0.0,0.0,66,0.00,,,0.00,weatherlink.com 1.10,2017-05-25 01:15:00,
2017-05-25 04:30:00,56.8,47.0,29.95,NNW,327,0.0,0.0,69,0.00,,,0.00,weatherlink.com 1.10,2017-05-25 01:30:00,
2017-05-25 04:45:00,56.8,41.0,29.95,NNW,327,0.0,0.0,57,0.00,,,0.00,weatherlink.com 1.10,2017-05-25 01:45:00,
2017-05-25 05:00:00,58.0,35.0,29.95,NNW,334,0.0,0.0,42,0.00,,,0.00,weatherlink.com 1.10,2017-05-25 02:00:00,
2017-05-25 05:15:00,58.3,35.0,29.95,NNW,338,0.0,0.0,42,0.00,,,0.00,weatherlink.com 1.10,2017-05-25 02:15:00,
2017-05-25 05:30:00,58.4,35.0,29.95,NNW,343,0.0,0.0,41,0.00,,,0.00,weatherlink.com 1.10,2017-05-25 02:30:00,
2017-05-25 05:45:00,57.8,36.0,29.95,East,79,0.0,0.0,44,0.00,,,0.00,weatherlink.com 1.10,2017-05-25 02:45:00,
2017-05-25 06:00:00,57.6,36.0,29.95,ESE,103,0.0,0.0,44,0.00,,,0.00,weatherlink.com 1.10,2017-05-25 03:00:00,
2017-05-25 06:15:00,59.2,36.0,29.95,East,91,0.0,0.0,42,0.00,,,0.00,weatherlink.com 1.10,2017-05-25 03:15:00,
2017-05-25 06:30:00,60.2,37.0,29.95,ESE,103,0.0,0.0,42,0.00,,,0.00,weatherlink.com 1.10,2017-05-25 03:30:00,
2017-05-25 06:45:00,61.5,37.0,29.96,East,87,0.0,0.0,41,0.00,,,0.00,weatherlink.com 1.10,2017-05-25 03:45:00,
2017-05-25 07:00:00,62.7,37.0,29.96,ESE,102,0.0,0.0,39,0.00,,,0.00,weatherlink.com 1.10,2017-05-25 04:00:00,
2017-05-25 07:15:00,64.0,36.0,29.96,East,98,0.0,0.0,36,0.00,,,0.00,weatherlink.com 1.10,2017-05-25 04:15:00,
2017-05-25 07:30:00,66.6,37.0,29.96,East,98,0.0,0.0,34,0.00,,,0.00,weatherlink.com 1.10,2017-05-25 04:30:00,
2017-05-25 07:45:00,68.9,39.0,29.96,SE,130,0.0,0.0,33,0.00,,,0.00,weatherlink.com 1.10,2017-05-25 04:45:00,
2017-05-25 08:00:00,69.9,35.0,29.96,ESE,116,0.0,0.0,28,0.00,,,0.00,weatherlink.com 1.10,2017-05-25 05:00:00,
2017-05-25 08:15:00,70.3,35.0,29.96,SE,134,0.0,0.0,27,0.00,,,0.00,weatherlink.com 1.10,2017-05-25 05:15:00,
2017-05-25 08:30:00,70.1,33.0,29.96,SSE,163,0.0,0.0,25,0.00,,,0.00,weatherlink.com 1.10,2017-05-25 05:30:00,
2017-05-25 08:45:00,72.3,31.0,29.97,WSW,239,0.0,0.0,22,0.00,,,0.00,weatherlink.com 1.10,2017-05-25 05:45:00,
2017-05-25 09:00:00,71.3,33.0,29.97,South,176,0.0,0.0,24,0.00,,,0.00,weatherlink.com 1.10,2017-05-25 06:00:00,
2017-05-25 09:15:00,71.9,33.0,29.97,SE,145,0.0,0.0,24,0.00,,,0.00,weatherlink.com 1.10,2017-05-25 06:15:00,
2017-05-25 09:30:00,72.2,30.0,29.97,South,173,0.0,0.0,21,0.00,,,0.00,weatherlink.com 1.10,2017-05-25 06:30:00,
2017-05-25 09:45:00,71.7,35.0,29.96,West,271,0.0,1.0,26,0.00,,,0.00,weatherlink.com 1.10,2017-05-25 06:45:00,
2017-05-25 10:00:00,72.0,34.0,29.96,South,188,0.0,0.0,25,0.00,,,0.00,weatherlink.com 1.10,2017-05-25 07:00:00,
2017-05-25 10:15:00,73.3,36.0,29.97,SSW,198,0.0,0.0,26,0.00,,,0.00,weatherlink.com 1.10,2017-05-25 07:15:00,
2017-05-25 10:30:00,73.7,36.0,29.97,WSW,253,0.0,1.0,25,0.00,,,0.00,weatherlink.com 1.10,2017-05-25 07:30:00,
2017-05-25 10:45:00,74.3,37.0,29.97,SSW,194,0.0,1.0,26,0.00,,,0.00,weatherlink.com 1.10,2017-05-25 07:45:00,
2017-05-25 11:00:00,74.1,39.0,29.97,West,269,0.0,6.0,28,0.00,,,0.00,weatherlink.com 1.10,2017-05-25 08:00:00,
2017-05-25 11:15:00,74.3,38.0,29.96,West,263,0.0,4.0,27,0.00,,,0.00,weatherlink.com 1.10,2017-05-25 08:15:00,
2017-05-25 11:31:00,74.3,38.0,29.96,NNW,337,0.0,7.0,27,0.00,,,0.00,weatherlink.com 1.10,2017-05-25 08:31:00,
2017-05-25 11:46:00,74.5,39.0,29.96,NNW,345,0.0,6.0,28,0.00,,,0.00,weatherlink.com 1.10,2017-05-25 08:46:00,
2017-05-25 12:00:00,75.3,41.0,29.96,West,270,0.0,6.0,29,0.00,,,0.00,weatherlink.com 1.10,2017-05-25 09:00:00,
2017-05-25 12:16:00,75.0,41.0,29.96,West,260,0.0,8.0,29,0.00,,,0.00,weatherlink.com 1.10,2017-05-25 09:16:00,
2017-05-25 12:31:00,76.5,41.0,29.95,WNW,290,3.0,6.0,28,0.00,,,0.00,weatherlink.com 1.10,2017-05-25 09:31:00,